Home > Weather > Goslar > Past weeks

Flag for Germany Past Weather in Goslar, Lower Saxony, Germany — Yesterday and Last 2 Weeks

Now
59 °F

Drizzle. Broken clouds.


Feels Like: 56 °F
Forecast: 53 / 68 °F
Wind: 17 mph from West

Location: Hannover

Current Time: Jun 25, 2016 at 9:33:24 PM

Latest Report: Jun 25, 2016 at 8:50 PM


Visibility: N/A

Pressure: 29.89 "Hg

Humidity: 94%

Dew Point: 57 °F

Location of GoslarLocation

Past Weather in Goslar — Graph

°F

Goslar Temperature Yesterday

Maximum temperature yesterday: 82 °F (at 1:50 PM)
Minimum temperature yesterday: 64 °F (at 3:20 AM)
Average temperature yesterday: 74 °F

High & Low Weather Summary for the Past Weeks

 TemperatureHumidityPressure
High90 °F (Jun 23, 3:20 PM)100% (Jun 13, 1:50 AM)30.24 "Hg (Jun 13, 1:50 AM)
Low50 °F (Jun 11, 3:20 AM)35% (Jun 11, 3:50 PM)29.45 "Hg (Jun 14, 5:50 PM)
Average63 °F80%29.86 "Hg
* Reported Jun 10 8:20 PM — Jun 25 8:20 PM, Goslar, Weather by CustomWeather, © 2016

Note: Actual official high and low records may vary slightly from our data, if they occured in-between our weather recording intervals... More about our weather records

Advertising

Goslar Weather History for the Previous 24 Hours

Scroll right to see more
 ConditionsComfort  
Time TempWeatherWind HumidityBarometerVisibility
8:20 PM
Sat, Jun 25
59 °FDrizzle. Broken clouds.14 mph100%29.89 "HgN/A
7:50 PM63 °FDrizzle. Broken clouds.12 mph94%29.86 "Hg2 mi
7:20 PM63 °FDrizzle. Broken clouds.10 mph100%29.86 "Hg5 mi
6:50 PM64 °FDrizzle. Broken clouds.12 mph94%29.83 "Hg4 mi
6:20 PM63 °FPartly sunny.12 mph100%29.86 "Hg5 mi
5:50 PM64 °FBroken clouds.13 mph94%29.83 "HgN/A
5:20 PM66 °FBroken clouds.13 mph94%29.83 "HgN/A
4:50 PM68 °FBroken clouds.10 mph88%29.86 "HgN/A
4:20 PM68 °FBroken clouds.12 mph88%29.86 "HgN/A
3:50 PM66 °FPartly sunny.9 mph94%29.86 "HgN/A
3:20 PM68 °FPartly sunny.7 mph88%29.86 "HgN/A
2:50 PM68 °FBroken clouds.6 mph88%29.86 "HgN/A
2:20 PM68 °FScattered clouds.7 mph88%29.86 "HgN/A
1:50 PM66 °FSprinkles. Broken clouds.6 mph94%29.89 "Hg6 mi
1:20 PM66 °FBroken clouds.6 mph94%29.89 "HgN/A
12:50 PM66 °FThunderstorms. Broken clouds.10 mph94%29.89 "HgN/A
12:20 PM63 °FStrong thunderstorms. Fog.18 mph100%29.83 "Hg1 mi
11:50 AM64 °FThunderstorms. Broken clouds.5 mph94%29.95 "Hg2 mi
11:20 AM64 °FFog.8 mph94%29.92 "Hg3 mi
10:50 AM64 °FThunderstorms. Broken clouds.9 mph94%29.92 "Hg3 mi
10:20 AM64 °FPartly sunny.9 mph94%29.95 "Hg5 mi
9:50 AM64 °FPartly sunny.7 mph100%29.92 "Hg6 mi
9:20 AM64 °FThunderstorms. Broken clouds.10 mph94%29.92 "Hg6 mi
8:50 AM63 °FThunderstorms. Broken clouds.14 mph100%29.92 "Hg3 mi
8:20 AM63 °FStrong thunderstorms. Broken clouds.8 mph100%29.98 "Hg1 mi
7:50 AM63 °FThunderstorms. Broken clouds.6 mph100%29.98 "Hg2 mi
7:20 AM63 °FThunderstorms. Broken clouds.9 mph100%29.95 "Hg1 mi
6:50 AM64 °FThunderstorms. Broken clouds.5 mph94%29.95 "Hg4 mi
6:20 AM64 °FThunderstorms. Broken clouds.7 mph94%29.95 "Hg4 mi
5:50 AM64 °FThundershowers. Partly cloudy.7 mph94%29.95 "Hg4 mi
5:20 AM64 °FRain showers. Partly cloudy.6 mph94%29.95 "HgN/A
4:50 AM64 °FPassing clouds.7 mph94%29.98 "HgN/A
4:20 AM64 °FPassing clouds.9 mph94%29.95 "HgN/A
3:50 AM64 °FPassing clouds.7 mph94%30.01 "Hg6 mi
3:20 AM66 °FPassing clouds.6 mph94%30.01 "Hg4 mi
2:50 AM66 °FScattered showers. Passing clouds.7 mph94%30.01 "Hg4 mi
2:20 AM66 °FScattered showers. Passing clouds.7 mph94%30.01 "Hg4 mi
1:50 AM66 °FScattered showers. Passing clouds.8 mph94%30.04 "Hg5 mi
1:20 AM68 °FPassing clouds.8 mph94%30.04 "Hg6 mi
12:50 AM68 °FPassing clouds.7 mph94%30.04 "Hg6 mi
12:20 AM68 °FPassing clouds.8 mph94%30.01 "Hg4 mi
11:50 PM
Fri, Jun 24
68 °FPassing clouds.10 mph100%30.01 "Hg4 mi
11:20 PM68 °FPassing clouds.8 mph100%30.01 "Hg5 mi
10:50 PM70 °FPassing clouds.10 mph94%30.01 "HgN/A
10:20 PM70 °FBroken clouds.7 mph88%30.01 "HgN/A
9:50 PM70 °FBroken clouds.12 mph88%30.01 "HgN/A
9:20 PM72 °FSprinkles. Broken clouds.15 mph88%30.01 "HgN/A
Weather by CustomWeather, © 2016

See weather overviewHow to use our weather pages